Time,TemperatureF,DewpointF,PressureIn,WindDirection,WindDirectionDegrees,WindSpeedMPH,WindSpeedGustMPH,Humidity,HourlyPrecipIn,Conditions,Clouds,dailyrainin,SoftwareType,DateUTC
2013-03-10 00:00:00,37.3,29.8,30.29,East,80,0.0,0.0,74,0.00,,,0.00,Wunderground v.1.15,2013-03-10 05:00:00,
2013-03-10 00:10:00,37.0,29.5,30.29,East,80,0.0,0.0,74,0.00,,,0.00,Wunderground v.1.15,2013-03-10 05:10:00,
2013-03-10 00:15:00,36.8,29.0,30.29,East,80,0.0,0.0,73,0.00,,,0.00,Wunderground v.1.15,2013-03-10 05:15:00,
2013-03-10 00:20:00,36.7,29.2,30.29,East,80,0.0,0.0,74,0.00,,,0.00,Wunderground v.1.15,2013-03-10 05:20:00,
2013-03-10 00:30:00,36.4,29.2,30.30,East,80,0.0,0.0,75,0.00,,,0.00,Wunderground v.1.15,2013-03-10 05:30:00,
2013-03-10 00:40:00,36.3,29.5,30.30,East,80,0.0,0.0,76,0.00,,,0.00,Wunderground v.1.15,2013-03-10 05:40:00,
2013-03-10 00:45:00,36.1,29.6,30.30,East,80,0.0,0.0,77,0.00,,,0.00,Wunderground v.1.15,2013-03-10 05:45:00,
2013-03-10 00:50:00,36.1,29.3,30.30,East,80,0.0,0.0,76,0.00,,,0.00,Wunderground v.1.15,2013-03-10 05:50:00,
2013-03-10 00:55:00,36.1,29.6,30.30,East,80,0.0,0.0,77,0.00,,,0.00,Wunderground v.1.15,2013-03-10 05:55:00,
2013-03-10 01:00:00,36.0,29.2,30.29,East,80,0.0,0.0,76,0.00,,,0.00,Wunderground v.1.15,2013-03-10 06:00:00,
2013-03-10 01:05:00,36.0,29.2,30.29,East,80,0.0,0.0,76,0.00,,,0.00,Wunderground v.1.15,2013-03-10 06:05:00,
2013-03-10 01:10:00,36.0,28.5,30.29,East,80,0.0,0.0,74,0.00,,,0.00,Wunderground v.1.15,2013-03-10 06:10:00,
2013-03-10 01:15:00,36.1,27.6,30.29,East,80,0.0,0.0,71,0.00,,,0.00,Wunderground v.1.15,2013-03-10 06:15:00,
2013-03-10 01:20:00,36.1,26.9,30.29,East,80,0.0,0.0,69,0.00,,,0.00,Wunderground v.1.15,2013-03-10 06:20:00,
2013-03-10 01:30:00,36.1,28.3,30.29,East,80,0.0,0.0,73,0.00,,,0.00,Wunderground v.1.15,2013-03-10 06:30:00,
2013-03-10 01:35:00,36.0,27.8,30.28,East,80,0.0,0.0,72,0.00,,,0.00,Wunderground v.1.15,2013-03-10 06:35:00,
2013-03-10 01:45:00,35.8,27.7,30.28,East,80,0.0,0.0,72,0.00,,,0.00,Wunderground v.1.15,2013-03-10 06:45:00,
2013-03-10 01:50:00,35.7,27.6,30.28,East,80,0.0,0.0,72,0.00,,,0.00,Wunderground v.1.15,2013-03-10 06:50:00,
2013-03-10 03:00:00,35.8,27.0,30.28,East,80,0.0,0.0,70,0.00,,,0.00,Wunderground v.1.15,2013-03-10 07:00:00,
2013-03-10 03:05:00,35.8,26.6,30.28,East,80,0.0,0.0,69,0.00,,,0.00,Wunderground v.1.15,2013-03-10 07:05:00,
2013-03-10 03:10:00,35.8,26.6,30.28,East,80,0.0,0.0,69,0.00,,,0.00,Wunderground v.1.15,2013-03-10 07:10:00,
2013-03-10 03:15:00,36.0,27.5,30.28,East,80,0.0,0.0,71,0.00,,,0.00,Wunderground v.1.15,2013-03-10 07:15:00,
2013-03-10 03:20:00,36.0,27.5,30.27,East,80,0.0,0.0,71,0.00,,,0.00,Wunderground v.1.15,2013-03-10 07:20:00,
2013-03-10 03:30:00,35.4,27.9,30.27,East,80,0.0,0.0,74,0.00,,,0.00,Wunderground v.1.15,2013-03-10 07:30:00,
2013-03-10 03:40:00,35.1,27.0,30.27,East,80,0.0,0.0,72,0.00,,,0.00,Wunderground v.1.15,2013-03-10 07:40:00,
2013-03-10 03:45:00,35.0,27.2,30.26,East,80,0.0,0.0,73,0.00,,,0.00,Wunderground v.1.15,2013-03-10 07:45:00,
2013-03-10 03:50:00,34.8,27.0,30.26,East,80,0.0,0.0,73,0.00,,,0.00,Wunderground v.1.15,2013-03-10 07:50:00,
2013-03-10 03:55:00,34.8,27.0,30.26,East,80,0.0,0.0,73,0.00,,,0.00,Wunderground v.1.15,2013-03-10 07:55:00,
2013-03-10 04:00:00,34.8,26.7,30.26,East,80,0.0,0.0,72,0.00,,,0.00,Wunderground v.1.15,2013-03-10 08:00:00,
2013-03-10 04:05:00,34.8,26.7,30.26,East,80,0.0,0.0,72,0.00,,,0.00,Wunderground v.1.15,2013-03-10 08:05:00,
2013-03-10 04:10:00,34.8,26.7,30.26,East,80,0.0,0.0,72,0.00,,,0.00,Wunderground v.1.15,2013-03-10 08:10:00,
2013-03-10 04:15:00,34.8,27.0,30.26,East,80,0.0,0.0,73,0.00,,,0.00,Wunderground v.1.15,2013-03-10 08:15:00,
2013-03-10 04:20:00,34.8,27.4,30.26,East,80,0.0,0.0,74,0.00,,,0.00,Wunderground v.1.15,2013-03-10 08:20:00,
2013-03-10 04:30:00,34.5,26.7,30.25,East,80,0.0,0.0,73,0.00,,,0.00,Wunderground v.1.15,2013-03-10 08:30:00,
2013-03-10 04:35:00,34.4,27.0,30.25,East,80,0.0,0.0,74,0.00,,,0.00,Wunderground v.1.15,2013-03-10 08:35:00,
2013-03-10 04:40:00,34.3,26.9,30.25,East,80,0.0,0.0,74,0.00,,,0.00,Wunderground v.1.15,2013-03-10 08:40:00,
2013-03-10 04:50:00,34.3,26.9,30.25,East,80,0.0,0.0,74,0.00,,,0.00,Wunderground v.1.15,2013-03-10 08:50:00,
2013-03-10 04:55:00,34.1,27.0,30.25,East,80,0.0,0.0,75,0.00,,,0.00,Wunderground v.1.15,2013-03-10 08:55:00,
2013-03-10 05:00:00,34.1,27.0,30.25,East,80,0.0,0.0,75,0.00,,,0.00,Wunderground v.1.15,2013-03-10 09:00:00,
2013-03-10 05:05:00,34.1,27.3,30.25,East,80,0.0,0.0,76,0.00,,,0.00,Wunderground v.1.15,2013-03-10 09:05:00,
2013-03-10 05:10:00,34.1,27.0,30.26,East,80,0.0,0.0,75,0.00,,,0.00,Wunderground v.1.15,2013-03-10 09:10:00,
2013-03-10 05:15:00,34.1,27.0,30.26,East,80,0.0,0.0,75,0.00,,,0.00,Wunderground v.1.15,2013-03-10 09:15:00,
2013-03-10 05:20:00,34.1,27.3,30.26,East,80,0.0,0.0,76,0.00,,,0.00,Wunderground v.1.15,2013-03-10 09:20:00,
2013-03-10 05:25:00,34.1,27.3,30.26,East,80,0.0,0.0,76,0.00,,,0.00,Wunderground v.1.15,2013-03-10 09:25:00,
2013-03-10 05:30:00,34.0,27.5,30.26,East,80,0.0,0.0,77,0.00,,,0.00,Wunderground v.1.15,2013-03-10 09:30:00,
2013-03-10 05:35:00,33.8,27.0,30.27,East,80,0.0,0.0,76,0.00,,,0.00,Wunderground v.1.15,2013-03-10 09:35:00,
2013-03-10 05:40:00,33.7,26.9,30.27,East,80,0.0,0.0,76,0.00,,,0.00,Wunderground v.1.15,2013-03-10 09:40:00,
2013-03-10 05:45:00,33.5,26.7,30.27,East,80,0.0,0.0,76,0.00,,,0.00,Wunderground v.1.15,2013-03-10 09:45:00,
2013-03-10 05:50:00,33.4,26.6,30.27,East,80,0.0,0.0,76,0.00,,,0.00,Wunderground v.1.15,2013-03-10 09:50:00,
2013-03-10 06:00:00,33.2,26.5,30.27,East,80,0.0,0.0,76,0.00,,,0.00,Wunderground v.1.15,2013-03-10 10:00:00,
2013-03-10 06:05:00,33.1,26.7,30.27,East,80,0.0,0.0,77,0.00,,,0.00,Wunderground v.1.15,2013-03-10 10:05:00,
2013-03-10 06:10:00,33.1,26.7,30.27,East,80,0.0,0.0,77,0.00,,,0.00,Wunderground v.1.15,2013-03-10 10:10:00,
2013-03-10 06:15:00,33.1,27.0,30.27,East,80,0.0,0.0,78,0.00,,,0.00,Wunderground v.1.15,2013-03-10 10:15:00,
2013-03-10 06:20:00,33.1,27.3,30.27,East,80,0.0,0.0,79,0.00,,,0.00,Wunderground v.1.15,2013-03-10 10:20:00,
2013-03-10 06:25:00,33.1,27.3,30.27,East,80,0.0,0.0,79,0.00,,,0.00,Wunderground v.1.15,2013-03-10 10:25:00,
2013-03-10 06:30:00,33.1,27.3,30.27,East,80,0.0,0.0,79,0.00,,,0.00,Wunderground v.1.15,2013-03-10 10:30:00,
2013-03-10 06:35:00,32.9,27.1,30.27,East,80,0.0,0.0,79,0.00,,,0.00,Wunderground v.1.15,2013-03-10 10:35:00,
2013-03-10 06:40:00,32.8,27.0,30.27,East,80,0.0,0.0,79,0.00,,,0.00,Wunderground v.1.15,2013-03-10 10:40:00,
2013-03-10 06:45:00,32.8,27.0,30.27,East,80,0.0,0.0,79,0.00,,,0.00,Wunderground v.1.15,2013-03-10 10:45:00,
2013-03-10 06:50:00,32.8,26.7,30.27,East,80,0.0,0.0,78,0.00,,,0.00,Wunderground v.1.15,2013-03-10 10:50:00,
2013-03-10 07:00:00,32.8,26.7,30.27,East,80,0.0,0.0,78,0.00,,,0.00,Wunderground v.1.15,2013-03-10 11:00:00,
2013-03-10 07:10:00,32.6,26.8,30.27,East,80,0.0,0.0,79,0.00,,,0.00,Wunderground v.1.15,2013-03-10 11:10:00,
2013-03-10 07:15:00,32.6,26.8,30.27,East,80,0.0,0.0,79,0.00,,,0.00,Wunderground v.1.15,2013-03-10 11:15:00,
2013-03-10 07:20:00,32.5,26.7,30.27,East,80,0.0,0.0,79,0.00,,,0.00,Wunderground v.1.15,2013-03-10 11:20:00,
2013-03-10 07:25:00,32.3,26.5,30.28,East,80,0.0,0.0,79,0.00,,,0.00,Wunderground v.1.15,2013-03-10 11:25:00,
2013-03-10 07:30:00,32.3,26.5,30.28,East,80,0.0,0.0,79,0.00,,,0.00,Wunderground v.1.15,2013-03-10 11:30:00,
2013-03-10 07:40:00,32.2,26.7,30.28,East,80,0.0,0.0,80,0.00,,,0.00,Wunderground v.1.15,2013-03-10 11:40:00,
2013-03-10 07:45:00,32.0,26.5,30.28,East,80,0.0,0.0,80,0.00,,,0.00,Wunderground v.1.15,2013-03-10 11:45:00,
2013-03-10 07:50:00,32.0,26.5,30.28,East,80,0.0,0.0,80,0.00,,,0.00,Wunderground v.1.15,2013-03-10 11:50:00,
2013-03-10 07:55:00,32.0,26.5,30.28,East,80,0.0,0.0,80,0.00,,,0.00,Wunderground v.1.15,2013-03-10 11:55:00,
2013-03-10 08:00:00,32.2,27.0,30.28,East,80,0.0,0.0,81,0.00,,,0.00,Wunderground v.1.15,2013-03-10 12:00:00,
2013-03-10 08:10:00,32.3,27.4,30.28,East,80,0.0,0.0,82,0.00,,,0.00,Wunderground v.1.15,2013-03-10 12:10:00,
2013-03-10 08:15:00,32.5,27.3,30.28,East,80,0.0,0.0,81,0.00,,,0.00,Wunderground v.1.15,2013-03-10 12:15:00,
2013-03-10 08:20:00,32.6,27.7,30.28,East,80,0.0,0.0,82,0.00,,,0.00,Wunderground v.1.15,2013-03-10 12:20:00,
2013-03-10 08:25:00,32.9,28.3,30.29,East,80,0.0,0.0,83,0.00,,,0.00,Wunderground v.1.15,2013-03-10 12:25:00,
2013-03-10 08:30:00,33.4,29.1,30.29,East,80,0.0,0.0,84,0.00,,,0.00,Wunderground v.1.15,2013-03-10 12:30:00,
2013-03-10 08:35:00,33.8,29.5,30.29,East,80,0.0,0.0,84,0.00,,,0.00,Wunderground v.1.15,2013-03-10 12:35:00,
2013-03-10 08:40:00,34.3,30.3,30.29,East,80,0.0,0.0,85,0.00,,,0.00,Wunderground v.1.15,2013-03-10 12:40:00,
2013-03-10 08:45:00,35.0,30.9,30.29,East,80,0.0,0.0,85,0.00,,,0.00,Wunderground v.1.15,2013-03-10 12:45:00,
2013-03-10 08:50:00,35.5,31.1,30.29,East,80,0.0,0.0,84,0.00,,,0.00,Wunderground v.1.15,2013-03-10 12:50:00,
2013-03-10 08:55:00,36.4,32.0,30.29,East,80,0.0,0.0,84,0.00,,,0.00,Wunderground v.1.15,2013-03-10 12:55:00,
2013-03-10 09:00:00,38.0,31.1,30.29,East,80,0.0,0.0,76,0.00,,,0.00,Wunderground v.1.15,2013-03-10 13:00:00,
2013-03-10 09:05:00,39.6,30.3,30.30,East,80,0.0,0.0,69,0.00,,,0.00,Wunderground v.1.15,2013-03-10 13:05:00,
2013-03-10 09:10:00,41.1,30.2,30.30,East,80,0.0,0.0,65,0.00,,,0.00,Wunderground v.1.15,2013-03-10 13:10:00,
2013-03-10 09:15:00,42.7,29.8,30.30,ESE,121,0.0,0.0,60,0.00,,,0.00,Wunderground v.1.15,2013-03-10 13:15:00,
2013-03-10 09:20:00,43.7,30.3,30.30,ESE,121,0.0,1.0,59,0.00,,,0.00,Wunderground v.1.15,2013-03-10 13:20:00,
2013-03-10 09:25:00,44.6,30.3,30.30,SSE,167,1.0,1.0,57,0.00,,,0.00,Wunderground v.1.15,2013-03-10 13:25:00,
2013-03-10 09:30:00,45.3,30.1,30.30,SSE,161,1.0,1.0,55,0.00,,,0.00,Wunderground v.1.15,2013-03-10 13:30:00,
2013-03-10 09:35:00,46.1,30.8,30.30,SSE,161,1.0,1.0,55,0.00,,,0.00,Wunderground v.1.15,2013-03-10 13:35:00,
2013-03-10 09:40:00,46.8,30.1,30.31,SE,142,1.0,2.0,52,0.00,,,0.00,Wunderground v.1.15,2013-03-10 13:40:00,
2013-03-10 09:50:00,48.0,30.2,30.31,SSE,153,2.0,2.0,50,0.00,,,0.00,Wunderground v.1.15,2013-03-10 13:50:00,
2013-03-10 09:55:00,48.4,30.6,30.31,SSE,150,1.0,2.0,50,0.00,,,0.00,Wunderground v.1.15,2013-03-10 13:55:00,
2013-03-10 10:00:00,49.0,30.1,30.31,SSE,161,2.0,2.0,48,0.00,,,0.00,Wunderground v.1.15,2013-03-10 14:00:00,
2013-03-10 10:05:00,49.3,30.9,30.31,SSE,162,2.0,2.0,49,0.00,,,0.00,Wunderground v.1.15,2013-03-10 14:05:00,
2013-03-10 10:10:00,49.8,30.9,30.31,South,178,1.0,1.0,48,0.00,,,0.00,Wunderground v.1.15,2013-03-10 14:10:00,
2013-03-10 10:15:00,50.2,31.2,30.31,SSW,199,1.0,1.0,48,0.00,,,0.00,Wunderground v.1.15,2013-03-10 14:15:00,
2013-03-10 10:20:00,50.5,32.0,30.31,South,188,1.0,1.0,49,0.00,,,0.00,Wunderground v.1.15,2013-03-10 14:20:00,
2013-03-10 10:25:00,51.0,30.9,30.31,SSW,207,2.0,5.0,46,0.00,,,0.00,Wunderground v.1.15,2013-03-10 14:25:00,
2013-03-10 10:30:00,51.3,30.7,30.31,SSE,150,2.0,2.0,45,0.00,,,0.00,Wunderground v.1.15,2013-03-10 14:30:00,
2013-03-10 10:35:00,52.0,31.3,30.31,South,185,2.0,2.0,45,0.00,,,0.00,Wunderground v.1.15,2013-03-10 14:35:00,
2013-03-10 10:40:00,52.3,30.4,30.31,SSE,163,2.0,3.0,43,0.00,,,0.00,Wunderground v.1.15,2013-03-10 14:40:00,
2013-03-10 10:45:00,52.7,30.8,30.31,SSE,164,2.0,3.0,43,0.00,,,0.00,Wunderground v.1.15,2013-03-10 14:45:00,
2013-03-10 10:50:00,53.2,30.1,30.31,SSW,193,2.0,2.0,41,0.00,,,0.00,Wunderground v.1.15,2013-03-10 14:50:00,
2013-03-10 11:00:00,54.7,30.2,30.30,SSE,154,2.0,5.0,39,0.00,,,0.00,Wunderground v.1.15,2013-03-10 15:00:00,
2013-03-10 11:10:00,55.2,29.4,30.31,SSE,153,4.0,4.0,37,0.00,,,0.00,Wunderground v.1.15,2013-03-10 15:10:00,
2013-03-10 11:15:00,55.5,29.6,30.30,SSE,160,3.0,5.0,37,0.00,,,0.00,Wunderground v.1.15,2013-03-10 15:15:00,
2013-03-10 11:20:00,55.8,29.2,30.30,ESE,123,3.0,3.0,36,0.00,,,0.00,Wunderground v.1.15,2013-03-10 15:20:00,
2013-03-10 11:30:00,56.6,29.9,30.29,SE,140,2.0,2.0,36,0.00,,,0.00,Wunderground v.1.15,2013-03-10 15:30:00,
2013-03-10 11:35:00,57.4,31.3,30.29,South,169,2.0,2.0,37,0.00,,,0.00,Wunderground v.1.15,2013-03-10 15:35:00,
2013-03-10 11:40:00,57.8,29.6,30.29,SSE,147,2.0,2.0,34,0.00,,,0.00,Wunderground v.1.15,2013-03-10 15:40:00,
2013-03-10 11:45:00,58.1,29.1,30.29,SE,125,2.0,7.0,33,0.00,,,0.00,Wunderground v.1.15,2013-03-10 15:45:00,
2013-03-10 11:50:00,58.6,28.8,30.28,SSE,163,2.0,5.0,32,0.00,,,0.00,Wunderground v.1.15,2013-03-10 15:50:00,
2013-03-10 11:55:00,58.6,27.2,30.29,ESE,115,2.0,5.0,30,0.00,,,0.00,Wunderground v.1.15,2013-03-10 15:55:00,
2013-03-10 12:05:00,58.3,29.3,30.29,SSE,164,2.0,5.0,33,0.00,,,0.00,Wunderground v.1.15,2013-03-10 16:05:00,
2013-03-10 12:10:00,58.4,28.6,30.28,SSE,164,2.0,2.0,32,0.00,,,0.00,Wunderground v.1.15,2013-03-10 16:10:00,
2013-03-10 12:15:00,58.9,29.1,30.29,WSW,246,2.0,2.0,32,0.00,,,0.00,Wunderground v.1.15,2013-03-10 16:15:00,
2013-03-10 12:20:00,59.4,31.0,30.29,SW,216,2.0,2.0,34,0.00,,,0.00,Wunderground v.1.15,2013-03-10 16:20:00,
2013-03-10 12:30:00,59.4,28.7,30.28,SSE,159,3.0,3.0,31,0.00,,,0.00,Wunderground v.1.15,2013-03-10 16:30:00,
2013-03-10 12:35:00,59.0,29.2,30.28,South,187,2.0,3.0,32,0.00,,,0.00,Wunderground v.1.15,2013-03-10 16:35:00,
2013-03-10 12:40:00,59.2,29.3,30.28,SSW,202,1.0,2.0,32,0.00,,,0.00,Wunderground v.1.15,2013-03-10 16:40:00,
2013-03-10 12:45:00,59.5,29.6,30.28,SW,236,2.0,2.0,32,0.00,,,0.00,Wunderground v.1.15,2013-03-10 16:45:00,
2013-03-10 12:50:00,60.3,31.0,30.28,ESE,117,2.0,2.0,33,0.00,,,0.00,Wunderground v.1.15,2013-03-10 16:50:00,
2013-03-10 13:00:00,60.9,30.8,30.27,East,87,2.0,2.0,32,0.00,,,0.00,Wunderground v.1.15,2013-03-10 17:00:00,
2013-03-10 13:05:00,61.7,30.7,30.27,SE,127,2.0,2.0,31,0.00,,,0.00,Wunderground v.1.15,2013-03-10 17:05:00,
2013-03-10 13:10:00,62.2,32.0,30.27,East,97,2.0,4.0,32,0.00,,,0.00,Wunderground v.1.15,2013-03-10 17:10:00,
2013-03-10 13:20:00,63.3,30.5,30.26,ESE,115,2.0,4.0,29,0.00,,,0.00,Wunderground v.1.15,2013-03-10 17:20:00,
2013-03-10 13:25:00,63.7,30.0,30.26,SE,136,3.0,6.0,28,0.00,,,0.00,Wunderground v.1.15,2013-03-10 17:25:00,
2013-03-10 13:30:00,63.5,29.8,30.26,SSE,155,3.0,5.0,28,0.00,,,0.00,Wunderground v.1.15,2013-03-10 17:30:00,
2013-03-10 13:35:00,63.0,29.4,30.25,West,267,3.0,5.0,28,0.00,,,0.00,Wunderground v.1.15,2013-03-10 17:35:00,
2013-03-10 13:40:00,63.3,29.6,30.25,South,185,2.0,2.0,28,0.00,,,0.00,Wunderground v.1.15,2013-03-10 17:40:00,
2013-03-10 13:45:00,63.2,29.5,30.25,South,170,2.0,2.0,28,0.00,,,0.00,Wunderground v.1.15,2013-03-10 17:45:00,
2013-03-10 13:50:00,62.8,30.9,30.25,SW,219,2.0,2.0,30,0.00,,,0.00,Wunderground v.1.15,2013-03-10 17:50:00,
2013-03-10 13:55:00,63.0,31.9,30.25,SSE,157,1.0,4.0,31,0.00,,,0.00,Wunderground v.1.15,2013-03-10 17:55:00,
2013-03-10 14:00:00,63.3,29.6,30.25,ESE,105,1.0,3.0,28,0.00,,,0.00,Wunderground v.1.15,2013-03-10 18:00:00,
2013-03-10 14:10:00,64.5,29.7,30.24,SSW,195,2.0,2.0,27,0.00,,,0.00,Wunderground v.1.15,2013-03-10 18:10:00,
2013-03-10 14:15:00,64.1,30.3,30.23,SW,222,1.0,5.0,28,0.00,,,0.00,Wunderground v.1.15,2013-03-10 18:15:00,
2013-03-10 14:20:00,64.3,30.5,30.23,ESE,113,2.0,2.0,28,0.00,,,0.00,Wunderground v.1.15,2013-03-10 18:20:00,
2013-03-10 14:25:00,64.5,29.7,30.23,South,175,2.0,2.0,27,0.00,,,0.00,Wunderground v.1.15,2013-03-10 18:25:00,
2013-03-10 14:30:00,64.8,30.9,30.23,SSW,207,1.0,1.0,28,0.00,,,0.00,Wunderground v.1.15,2013-03-10 18:30:00,
2013-03-10 14:40:00,65.4,31.4,30.22,East,101,3.0,5.0,28,0.00,,,0.00,Wunderground v.1.15,2013-03-10 18:40:00,
2013-03-10 14:45:00,66.3,30.4,30.22,East,82,3.0,5.0,26,0.00,,,0.00,Wunderground v.1.15,2013-03-10 18:45:00,
2013-03-10 14:50:00,67.1,30.1,30.22,ESE,115,2.0,3.0,25,0.00,,,0.00,Wunderground v.1.15,2013-03-10 18:50:00,
2013-03-10 14:55:00,67.3,31.2,30.21,East,98,3.0,3.0,26,0.00,,,0.00,Wunderground v.1.15,2013-03-10 18:55:00,
2013-03-10 15:00:00,67.3,30.2,30.21,ESE,113,3.0,4.0,25,0.00,,,0.00,Wunderground v.1.15,2013-03-10 19:00:00,
2013-03-10 15:05:00,67.3,29.2,30.21,SSE,167,2.0,4.0,24,0.00,,,0.00,Wunderground v.1.15,2013-03-10 19:05:00,
2013-03-10 15:10:00,66.3,29.4,30.21,SSW,193,3.0,6.0,25,0.00,,,0.00,Wunderground v.1.15,2013-03-10 19:10:00,
2013-03-10 15:15:00,65.9,29.1,30.21,ESE,104,2.0,6.0,25,0.00,,,0.00,Wunderground v.1.15,2013-03-10 19:15:00,
2013-03-10 15:20:00,66.3,29.4,30.20,ESE,118,1.0,2.0,25,0.00,,,0.00,Wunderground v.1.15,2013-03-10 19:20:00,
2013-03-10 15:25:00,66.3,28.4,30.20,SSW,196,1.0,2.0,24,0.00,,,0.00,Wunderground v.1.15,2013-03-10 19:25:00,
2013-03-10 15:30:00,66.1,30.2,30.20,East,94,2.0,2.0,26,0.00,,,0.00,Wunderground v.1.15,2013-03-10 19:30:00,
2013-03-10 15:35:00,66.6,29.6,30.20,SE,142,2.0,2.0,25,0.00,,,0.00,Wunderground v.1.15,2013-03-10 19:35:00,
2013-03-10 15:40:00,67.4,28.3,30.20,SE,132,2.0,4.0,23,0.00,,,0.00,Wunderground v.1.15,2013-03-10 19:40:00,
2013-03-10 15:45:00,67.8,28.6,30.20,ESE,105,2.0,4.0,23,0.00,,,0.00,Wunderground v.1.15,2013-03-10 19:45:00,
2013-03-10 15:50:00,68.1,30.9,30.20,East,83,2.0,2.0,25,0.00,,,0.00,Wunderground v.1.15,2013-03-10 19:50:00,
2013-03-10 15:55:00,68.4,30.2,30.20,SE,126,2.0,2.0,24,0.00,,,0.00,Wunderground v.1.15,2013-03-10 19:55:00,
2013-03-10 16:00:00,68.3,29.0,30.20,South,171,2.0,4.0,23,0.00,,,0.00,Wunderground v.1.15,2013-03-10 20:00:00,
2013-03-10 16:05:00,66.8,30.8,30.20,East,96,2.0,4.0,26,0.00,,,0.00,Wunderground v.1.15,2013-03-10 20:05:00,
2013-03-10 16:10:00,66.6,29.6,30.20,SSW,194,3.0,3.0,25,0.00,,,0.00,Wunderground v.1.15,2013-03-10 20:10:00,
2013-03-10 16:15:00,66.3,28.4,30.20,SSE,160,2.0,3.0,24,0.00,,,0.00,Wunderground v.1.15,2013-03-10 20:15:00,
2013-03-10 16:20:00,66.4,29.5,30.20,East,92,2.0,2.0,25,0.00,,,0.00,Wunderground v.1.15,2013-03-10 20:20:00,
2013-03-10 16:25:00,66.9,29.9,30.20,East,88,2.0,2.0,25,0.00,,,0.00,Wunderground v.1.15,2013-03-10 20:25:00,
2013-03-10 16:30:00,66.9,28.9,30.19,SE,137,3.0,5.0,24,0.00,,,0.00,Wunderground v.1.15,2013-03-10 20:30:00,
2013-03-10 16:35:00,66.8,29.8,30.19,SSE,150,3.0,5.0,25,0.00,,,0.00,Wunderground v.1.15,2013-03-10 20:35:00,
2013-03-10 16:40:00,66.4,29.5,30.19,ESE,123,3.0,3.0,25,0.00,,,0.00,Wunderground v.1.15,2013-03-10 20:40:00,
2013-03-10 16:45:00,65.9,29.1,30.19,SE,136,3.0,3.0,25,0.00,,,0.00,Wunderground v.1.15,2013-03-10 20:45:00,
2013-03-10 16:55:00,66.1,30.2,30.19,SSW,194,2.0,5.0,26,0.00,,,0.00,Wunderground v.1.15,2013-03-10 20:55:00,
2013-03-10 17:00:00,65.6,29.8,30.19,SSW,200,3.0,3.0,26,0.00,,,0.00,Wunderground v.1.15,2013-03-10 21:00:00,
2013-03-10 17:10:00,66.3,28.4,30.20,SE,140,3.0,4.0,24,0.00,,,0.00,Wunderground v.1.15,2013-03-10 21:10:00,
2013-03-10 17:15:00,66.6,28.6,30.19,SSW,194,2.0,4.0,24,0.00,,,0.00,Wunderground v.1.15,2013-03-10 21:15:00,
2013-03-10 17:20:00,66.9,27.9,30.19,ESE,111,2.0,3.0,23,0.00,,,0.00,Wunderground v.1.15,2013-03-10 21:20:00,
2013-03-10 17:25:00,66.8,27.8,30.19,SE,126,3.0,3.0,23,0.00,,,0.00,Wunderground v.1.15,2013-03-10 21:25:00,
2013-03-10 17:30:00,66.9,27.9,30.19,SE,126,2.0,2.0,23,0.00,,,0.00,Wunderground v.1.15,2013-03-10 21:30:00,
2013-03-10 17:35:00,67.1,30.1,30.19,ESE,102,1.0,2.0,25,0.00,,,0.00,Wunderground v.1.15,2013-03-10 21:35:00,
2013-03-10 17:40:00,66.9,28.9,30.19,SE,128,3.0,3.0,24,0.00,,,0.00,Wunderground v.1.15,2013-03-10 21:40:00,
2013-03-10 17:50:00,66.9,27.9,30.19,SSE,160,2.0,2.0,23,0.00,,,0.00,Wunderground v.1.15,2013-03-10 21:50:00,
2013-03-10 17:55:00,66.4,29.5,30.19,South,176,2.0,2.0,25,0.00,,,0.00,Wunderground v.1.15,2013-03-10 21:55:00,
2013-03-10 18:00:00,66.1,26.1,30.19,SE,124,2.0,3.0,22,0.00,,,0.00,Wunderground v.1.15,2013-03-10 22:00:00,
2013-03-10 18:05:00,65.3,28.5,30.19,ESE,103,2.0,3.0,25,0.00,,,0.00,Wunderground v.1.15,2013-03-10 22:05:00,
2013-03-10 18:10:00,64.6,27.9,30.19,ESE,122,2.0,2.0,25,0.00,,,0.00,Wunderground v.1.15,2013-03-10 22:10:00,
2013-03-10 18:15:00,64.1,29.4,30.19,SE,132,2.0,2.0,27,0.00,,,0.00,Wunderground v.1.15,2013-03-10 22:15:00,
2013-03-10 18:20:00,63.8,28.2,30.19,SE,132,1.0,3.0,26,0.00,,,0.00,Wunderground v.1.15,2013-03-10 22:20:00,
2013-03-10 18:25:00,63.7,29.1,30.19,ESE,118,1.0,3.0,27,0.00,,,0.00,Wunderground v.1.15,2013-03-10 22:25:00,
2013-03-10 18:30:00,63.5,28.0,30.19,SE,129,1.0,2.0,26,0.00,,,0.00,Wunderground v.1.15,2013-03-10 22:30:00,
2013-03-10 18:35:00,63.2,28.6,30.19,ESE,123,1.0,2.0,27,0.00,,,0.00,Wunderground v.1.15,2013-03-10 22:35:00,
2013-03-10 18:40:00,63.0,28.5,30.19,SE,134,2.0,2.0,27,0.00,,,0.00,Wunderground v.1.15,2013-03-10 22:40:00,
2013-03-10 18:45:00,63.0,28.5,30.20,SE,134,1.0,2.0,27,0.00,,,0.00,Wunderground v.1.15,2013-03-10 22:45:00,
2013-03-10 18:50:00,62.7,28.2,30.20,ESE,122,1.0,2.0,27,0.00,,,0.00,Wunderground v.1.15,2013-03-10 22:50:00,
2013-03-10 18:55:00,62.4,28.8,30.20,ESE,122,1.0,2.0,28,0.00,,,0.00,Wunderground v.1.15,2013-03-10 22:55:00,
2013-03-10 19:00:00,62.0,28.5,30.20,ESE,117,1.0,1.0,28,0.00,,,0.00,Wunderground v.1.15,2013-03-10 23:00:00,
2013-03-10 19:10:00,61.4,28.8,30.20,ESE,104,0.0,1.0,29,0.00,,,0.00,Wunderground v.1.15,2013-03-10 23:10:00,
2013-03-10 19:15:00,60.9,28.4,30.20,ESE,104,1.0,1.0,29,0.00,,,0.00,Wunderground v.1.15,2013-03-10 23:15:00,
2013-03-10 19:20:00,60.5,28.1,30.20,ESE,104,1.0,1.0,29,0.00,,,0.00,Wunderground v.1.15,2013-03-10 23:20:00,
2013-03-10 19:25:00,60.0,29.2,30.20,ESE,104,1.0,1.0,31,0.00,,,0.00,Wunderground v.1.15,2013-03-10 23:25:00,
2013-03-10 19:30:00,59.5,28.8,30.20,ESE,104,1.0,1.0,31,0.00,,,0.00,Wunderground v.1.15,2013-03-10 23:30:00,
2013-03-10 19:35:00,59.0,29.2,30.19,ESE,104,0.0,1.0,32,0.00,,,0.00,Wunderground v.1.15,2013-03-10 23:35:00,
2013-03-10 19:40:00,58.6,27.2,30.19,SE,130,1.0,2.0,30,0.00,,,0.00,Wunderground v.1.15,2013-03-10 23:40:00,
2013-03-10 19:45:00,58.3,27.0,30.19,SE,129,1.0,2.0,30,0.00,,,0.00,Wunderground v.1.15,2013-03-10 23:45:00,
2013-03-10 19:50:00,58.0,26.7,30.19,ESE,107,1.0,2.0,30,0.00,,,0.00,Wunderground v.1.15,2013-03-10 23:50:00,
2013-03-10 19:55:00,57.8,25.7,30.20,ESE,107,1.0,2.0,29,0.00,,,0.00,Wunderground v.1.15,2013-03-10 23:55:00,
2013-03-10 20:00:00,57.5,26.3,30.20,ESE,107,1.0,1.0,30,0.00,,,0.00,Wunderground v.1.15,2013-03-11 00:00:00,
2013-03-10 20:10:00,57.1,26.7,30.20,SE,127,1.0,3.0,31,0.00,,,0.00,Wunderground v.1.15,2013-03-11 00:10:00,
2013-03-10 20:15:00,56.9,25.7,30.20,ESE,113,1.0,3.0,30,0.00,,,0.00,Wunderground v.1.15,2013-03-11 00:15:00,
2013-03-10 20:20:00,56.6,25.5,30.20,ESE,105,1.0,1.0,30,0.00,,,0.00,Wunderground v.1.15,2013-03-11 00:20:00,
2013-03-10 20:30:00,56.3,24.4,30.20,ESE,119,1.0,1.0,29,0.00,,,0.00,Wunderground v.1.15,2013-03-11 00:30:00,
2013-03-10 20:40:00,56.1,24.2,30.21,ESE,119,1.0,1.0,29,0.00,,,0.00,Wunderground v.1.15,2013-03-11 00:40:00,
2013-03-10 20:45:00,56.3,24.4,30.21,ESE,119,0.0,1.0,29,0.00,,,0.00,Wunderground v.1.15,2013-03-11 00:45:00,
2013-03-10 20:50:00,56.3,24.4,30.21,ESE,119,0.0,1.0,29,0.00,,,0.00,Wunderground v.1.15,2013-03-11 00:50:00,
2013-03-10 20:55:00,56.1,24.2,30.21,ESE,119,0.0,1.0,29,0.00,,,0.00,Wunderground v.1.15,2013-03-11 00:55:00,
2013-03-10 21:00:00,55.8,23.1,30.21,ESE,119,0.0,0.0,28,0.00,,,0.00,Wunderground v.1.15,2013-03-11 01:00:00,
2013-03-10 21:10:00,55.4,23.6,30.21,ESE,119,0.0,0.0,29,0.00,,,0.00,Wunderground v.1.15,2013-03-11 01:10:00,
2013-03-10 21:15:00,55.1,25.0,30.21,ESE,119,0.0,0.0,31,0.00,,,0.00,Wunderground v.1.15,2013-03-11 01:15:00,
2013-03-10 21:20:00,54.8,24.7,30.22,ESE,119,0.0,0.0,31,0.00,,,0.00,Wunderground v.1.15,2013-03-11 01:20:00,
2013-03-10 21:25:00,54.4,25.1,30.21,ESE,119,0.0,0.0,32,0.00,,,0.00,Wunderground v.1.15,2013-03-11 01:25:00,
2013-03-10 21:30:00,53.9,24.7,30.21,ESE,119,0.0,0.0,32,0.00,,,0.00,Wunderground v.1.15,2013-03-11 01:30:00,
2013-03-10 21:35:00,53.5,23.6,30.21,ESE,119,0.0,0.0,31,0.00,,,0.00,Wunderground v.1.15,2013-03-11 01:35:00,
2013-03-10 21:40:00,53.3,24.2,30.22,ESE,119,0.0,0.0,32,0.00,,,0.00,Wunderground v.1.15,2013-03-11 01:40:00,
2013-03-10 21:50:00,53.3,25.6,30.22,ESE,120,0.0,2.0,34,0.00,,,0.00,Wunderground v.1.15,2013-03-11 01:50:00,
2013-03-10 21:55:00,53.2,23.3,30.22,ESE,120,0.0,2.0,31,0.00,,,0.00,Wunderground v.1.15,2013-03-11 01:55:00,
2013-03-10 22:00:00,53.0,23.9,30.22,ESE,119,0.0,0.0,32,0.00,,,0.00,Wunderground v.1.15,2013-03-11 02:00:00,
2013-03-10 22:10:00,52.6,23.5,30.22,ESE,119,0.0,0.0,32,0.00,,,0.00,Wunderground v.1.15,2013-03-11 02:10:00,
2013-03-10 22:15:00,52.4,22.6,30.23,ESE,120,0.0,0.0,31,0.00,,,0.00,Wunderground v.1.15,2013-03-11 02:15:00,
2013-03-10 22:20:00,52.4,23.4,30.23,ESE,119,0.0,0.0,32,0.00,,,0.00,Wunderground v.1.15,2013-03-11 02:20:00,
2013-03-10 22:25:00,52.3,24.7,30.23,ESE,119,0.0,0.0,34,0.00,,,0.00,Wunderground v.1.15,2013-03-11 02:25:00,
2013-03-10 22:30:00,52.1,23.8,30.23,ESE,120,0.0,0.0,33,0.00,,,0.00,Wunderground v.1.15,2013-03-11 02:30:00,
2013-03-10 22:35:00,51.8,24.3,30.23,ESE,120,0.0,0.0,34,0.00,,,0.00,Wunderground v.1.15,2013-03-11 02:35:00,
2013-03-10 22:40:00,51.4,23.2,30.23,ESE,119,0.0,0.0,33,0.00,,,0.00,Wunderground v.1.15,2013-03-11 02:40:00,
2013-03-10 22:45:00,51.1,23.0,30.23,ESE,120,0.0,0.0,33,0.00,,,0.00,Wunderground v.1.15,2013-03-11 02:45:00,
2013-03-10 22:50:00,51.0,22.1,30.23,ESE,119,0.0,0.0,32,0.00,,,0.00,Wunderground v.1.15,2013-03-11 02:50:00,
2013-03-10 22:55:00,50.8,23.4,30.23,ESE,120,0.0,0.0,34,0.00,,,0.00,Wunderground v.1.15,2013-03-11 02:55:00,
2013-03-10 23:00:00,50.5,23.1,30.23,ESE,119,0.0,0.0,34,0.00,,,0.00,Wunderground v.1.15,2013-03-11 03:00:00,
2013-03-10 23:10:00,50.2,24.9,30.22,ESE,119,0.0,0.0,37,0.00,,,0.00,Wunderground v.1.15,2013-03-11 03:10:00,
2013-03-10 23:15:00,50.1,24.2,30.22,ESE,119,0.0,0.0,36,0.00,,,0.00,Wunderground v.1.15,2013-03-11 03:15:00,
2013-03-10 23:20:00,49.8,23.2,30.22,ESE,120,0.0,0.0,35,0.00,,,0.00,Wunderground v.1.15,2013-03-11 03:20:00,
2013-03-10 23:25:00,49.6,23.7,30.22,ESE,119,0.0,0.0,36,0.00,,,0.00,Wunderground v.1.15,2013-03-11 03:25:00,
2013-03-10 23:30:00,49.5,24.3,30.21,ESE,119,0.0,0.0,37,0.00,,,0.00,Wunderground v.1.15,2013-03-11 03:30:00,
2013-03-10 23:35:00,49.5,22.9,30.21,ESE,119,0.0,0.0,35,0.00,,,0.00,Wunderground v.1.15,2013-03-11 03:35:00,
2013-03-10 23:40:00,49.5,24.3,30.21,ESE,119,0.0,0.0,37,0.00,,,0.00,Wunderground v.1.15,2013-03-11 03:40:00,
2013-03-10 23:45:00,49.3,24.1,30.22,ESE,119,0.0,1.0,37,0.00,,,0.00,Wunderground v.1.15,2013-03-11 03:45:00,
2013-03-10 23:50:00,49.2,23.4,30.21,ESE,120,0.0,1.0,36,0.00,,,0.00,Wunderground v.1.15,2013-03-11 03:50:00,